Time,TemperatureF,DewpointF,PressureIn,WindDirection,WindDirectionDegrees,WindSpeedMPH,WindSpeedGustMPH,Humidity,HourlyPrecipIn,Conditions,Clouds,dailyrainin,SolarRadiationWatts/m^2,SoftwareType,DateUTC
2013-07-07 00:01:00,56.5,51.7,29.87,NW,319,0.0,0.0,84,0.00,,,0.00,0,WeatherCatV1.14B232,2013-07-07 07:01:00,
2013-07-07 00:06:00,56.3,51.5,29.87,NW,319,0.0,0.0,84,0.00,,,0.00,0,WeatherCatV1.14B232,2013-07-07 07:06:00,
2013-07-07 00:11:00,56.2,51.7,29.87,NW,319,0.0,0.0,85,0.00,,,0.00,0,WeatherCatV1.14B232,2013-07-07 07:11:00,
2013-07-07 00:16:00,56.0,51.9,29.87,NW,319,0.0,0.0,86,0.00,,,0.00,0,WeatherCatV1.14B232,2013-07-07 07:16:00,
2013-07-07 00:21:00,55.9,52.1,29.87,NW,319,0.0,0.0,87,0.00,,,0.00,0,WeatherCatV1.14B232,2013-07-07 07:21:00,
2013-07-07 00:26:00,55.7,51.9,29.87,NW,319,0.0,0.0,87,0.00,,,0.00,0,WeatherCatV1.14B232,2013-07-07 07:26:00,
2013-07-07 00:31:00,55.6,51.8,29.87,NW,319,0.0,0.0,87,0.00,,,0.00,0,WeatherCatV1.14B232,2013-07-07 07:31:00,
2013-07-07 00:36:00,55.4,51.6,29.87,NW,319,0.0,0.0,87,0.00,,,0.00,0,WeatherCatV1.14B232,2013-07-07 07:36:00,
2013-07-07 00:41:00,55.4,51.6,29.87,NW,319,0.0,0.0,87,0.00,,,0.00,0,WeatherCatV1.14B232,2013-07-07 07:41:00,
2013-07-07 00:46:00,55.3,51.8,29.87,NW,319,0.0,0.0,88,0.00,,,0.00,0,WeatherCatV1.14B232,2013-07-07 07:46:00,
2013-07-07 00:51:00,55.1,51.6,29.87,NW,319,0.0,0.0,88,0.00,,,0.00,0,WeatherCatV1.14B232,2013-07-07 07:51:00,
2013-07-07 00:56:00,55.0,51.8,29.87,NW,319,0.0,0.0,89,0.00,,,0.00,0,WeatherCatV1.14B232,2013-07-07 07:56:00,
2013-07-07 01:01:00,55.0,51.8,29.86,NW,319,0.0,0.0,89,0.00,,,0.00,0,WeatherCatV1.14B232,2013-07-07 08:01:00,
2013-07-07 01:06:00,54.8,51.6,29.86,NW,319,0.0,0.0,89,0.00,,,0.00,0,WeatherCatV1.14B232,2013-07-07 08:06:00,
2013-07-07 01:11:00,54.7,51.5,29.86,NW,319,0.0,0.0,89,0.00,,,0.00,0,WeatherCatV1.14B232,2013-07-07 08:11:00,
2013-07-07 01:16:00,54.5,51.3,29.86,NW,319,0.0,0.0,89,0.00,,,0.00,0,WeatherCatV1.14B232,2013-07-07 08:16:00,
2013-07-07 01:21:00,54.5,51.3,29.86,NW,319,0.0,0.0,89,0.00,,,0.00,0,WeatherCatV1.14B232,2013-07-07 08:21:00,
2013-07-07 01:26:00,54.4,51.2,29.86,NW,319,0.0,0.0,89,0.00,,,0.00,0,WeatherCatV1.14B232,2013-07-07 08:26:00,
2013-07-07 01:31:00,54.2,51.0,29.86,NW,319,0.0,0.0,89,0.00,,,0.00,0,WeatherCatV1.14B232,2013-07-07 08:31:00,
2013-07-07 01:36:00,54.2,51.3,29.86,NW,319,0.0,0.0,90,0.00,,,0.00,0,WeatherCatV1.14B232,2013-07-07 08:36:00,
2013-07-07 01:41:00,54.1,51.2,29.86,NW,319,0.0,0.0,90,0.00,,,0.00,0,WeatherCatV1.14B232,2013-07-07 08:41:00,
2013-07-07 01:46:00,54.1,51.2,29.87,NW,319,0.0,0.0,90,0.00,,,0.00,0,WeatherCatV1.14B232,2013-07-07 08:46:00,
2013-07-07 01:51:00,53.9,51.0,29.87,NW,319,0.0,0.0,90,0.00,,,0.00,0,WeatherCatV1.14B232,2013-07-07 08:51:00,
2013-07-07 01:56:00,53.8,50.9,29.87,NW,319,0.0,0.0,90,0.00,,,0.00,0,WeatherCatV1.14B232,2013-07-07 08:56:00,
2013-07-07 02:01:00,53.8,50.9,29.86,NW,319,0.0,0.0,90,0.00,,,0.00,0,WeatherCatV1.14B232,2013-07-07 09:01:00,
2013-07-07 02:06:00,53.6,50.7,29.86,NW,319,0.0,0.0,90,0.00,,,0.00,0,WeatherCatV1.14B232,2013-07-07 09:06:00,
2013-07-07 02:11:00,53.6,50.7,29.86,NW,319,0.0,0.0,90,0.00,,,0.00,0,WeatherCatV1.14B232,2013-07-07 09:11:00,
2013-07-07 02:16:00,53.5,50.9,29.86,NW,319,0.0,0.0,91,0.00,,,0.00,0,WeatherCatV1.14B232,2013-07-07 09:16:00,
2013-07-07 02:21:00,53.5,50.9,29.86,NW,319,0.0,0.0,91,0.00,,,0.00,0,WeatherCatV1.14B232,2013-07-07 09:21:00,
2013-07-07 02:26:00,53.5,50.9,29.86,NW,319,0.0,0.0,91,0.00,,,0.00,0,WeatherCatV1.14B232,2013-07-07 09:26:00,
2013-07-07 02:31:00,53.5,50.9,29.86,NW,319,0.0,0.0,91,0.00,,,0.00,0,WeatherCatV1.14B232,2013-07-07 09:31:00,
2013-07-07 02:36:00,53.5,51.2,29.86,NW,319,0.0,0.0,92,0.00,,,0.00,0,WeatherCatV1.14B232,2013-07-07 09:36:00,
2013-07-07 02:41:00,53.5,51.2,29.86,NW,319,0.0,0.0,92,0.00,,,0.00,0,WeatherCatV1.14B232,2013-07-07 09:41:00,
2013-07-07 02:46:00,53.3,51.0,29.86,NW,319,0.0,0.0,92,0.00,,,0.00,0,WeatherCatV1.14B232,2013-07-07 09:46:00,
2013-07-07 02:51:00,53.3,51.0,29.86,NW,319,0.0,0.0,92,0.00,,,0.00,0,WeatherCatV1.14B232,2013-07-07 09:51:00,
2013-07-07 02:56:00,53.5,51.2,29.86,NW,319,0.0,0.0,92,0.00,,,0.00,0,WeatherCatV1.14B232,2013-07-07 09:56:00,
2013-07-07 03:01:00,53.5,51.2,29.86,NW,319,0.0,0.0,92,0.00,,,0.00,0,WeatherCatV1.14B232,2013-07-07 10:01:00,
2013-07-07 03:06:00,53.5,51.5,29.86,NW,319,0.0,0.0,93,0.00,,,0.00,0,WeatherCatV1.14B232,2013-07-07 10:06:00,
2013-07-07 03:11:00,53.5,51.5,29.86,NW,319,0.0,0.0,93,0.00,,,0.00,0,WeatherCatV1.14B232,2013-07-07 10:11:00,
2013-07-07 03:16:00,53.5,51.5,29.86,NW,319,0.0,0.0,93,0.00,,,0.00,0,WeatherCatV1.14B232,2013-07-07 10:16:00,
2013-07-07 03:21:00,53.5,51.5,29.86,NW,319,0.0,0.0,93,0.00,,,0.00,0,WeatherCatV1.14B232,2013-07-07 10:21:00,
2013-07-07 03:26:00,53.5,51.5,29.86,NW,319,0.0,0.0,93,0.00,,,0.00,0,WeatherCatV1.14B232,2013-07-07 10:26:00,
2013-07-07 03:31:00,53.5,51.5,29.86,NW,319,0.0,0.0,93,0.00,,,0.00,0,WeatherCatV1.14B232,2013-07-07 10:31:00,
2013-07-07 03:36:00,53.5,51.5,29.86,NW,319,0.0,0.0,93,0.00,,,0.00,0,WeatherCatV1.14B232,2013-07-07 10:36:00,
2013-07-07 03:41:00,53.5,51.5,29.86,NW,319,0.0,0.0,93,0.00,,,0.00,0,WeatherCatV1.14B232,2013-07-07 10:41:00,
2013-07-07 03:46:00,53.3,51.3,29.86,NW,319,0.0,0.0,93,0.00,,,0.00,0,WeatherCatV1.14B232,2013-07-07 10:46:00,
2013-07-07 03:51:00,53.3,51.3,29.86,NW,319,0.0,0.0,93,0.00,,,0.00,0,WeatherCatV1.14B232,2013-07-07 10:51:00,
2013-07-07 03:56:00,53.3,51.3,29.86,NW,319,0.0,0.0,93,0.00,,,0.00,0,WeatherCatV1.14B232,2013-07-07 10:56:00,
2013-07-07 04:01:00,53.3,51.3,29.86,NW,319,0.0,0.0,93,0.00,,,0.00,0,WeatherCatV1.14B232,2013-07-07 11:01:00,
2013-07-07 04:06:00,53.3,51.3,29.86,NW,319,0.0,0.0,93,0.00,,,0.00,0,WeatherCatV1.14B232,2013-07-07 11:06:00,
2013-07-07 04:11:00,53.3,51.3,29.86,NW,319,0.0,0.0,93,0.00,,,0.00,0,WeatherCatV1.14B232,2013-07-07 11:11:00,
2013-07-07 04:16:00,53.3,51.3,29.86,NW,319,0.0,0.0,93,0.00,,,0.00,0,WeatherCatV1.14B232,2013-07-07 11:16:00,
2013-07-07 04:21:00,53.2,51.2,29.86,NW,319,0.0,0.0,93,0.00,,,0.00,0,WeatherCatV1.14B232,2013-07-07 11:21:00,
2013-07-07 04:26:00,53.2,51.2,29.86,NW,319,0.0,0.0,93,0.00,,,0.00,0,WeatherCatV1.14B232,2013-07-07 11:26:00,
2013-07-07 04:31:00,53.2,51.2,29.86,NW,319,0.0,0.0,93,0.00,,,0.00,0,WeatherCatV1.14B232,2013-07-07 11:31:00,
2013-07-07 04:36:00,53.1,51.1,29.86,NW,319,0.0,0.0,93,0.00,,,0.00,0,WeatherCatV1.14B232,2013-07-07 11:36:00,
2013-07-07 04:41:00,53.1,51.1,29.86,NW,319,0.0,0.0,93,0.00,,,0.00,0,WeatherCatV1.14B232,2013-07-07 11:41:00,
2013-07-07 04:46:00,52.9,50.9,29.87,NW,319,0.0,0.0,93,0.00,,,0.00,0,WeatherCatV1.14B232,2013-07-07 11:46:00,
2013-07-07 04:51:00,52.9,50.9,29.87,NW,319,0.0,0.0,93,0.00,,,0.00,0,WeatherCatV1.14B232,2013-07-07 11:51:00,
2013-07-07 04:56:00,52.8,50.8,29.87,NW,319,0.0,0.0,93,0.00,,,0.00,0,WeatherCatV1.14B232,2013-07-07 11:56:00,
2013-07-07 05:01:00,52.6,50.6,29.87,NW,319,0.0,0.0,93,0.00,,,0.00,0,WeatherCatV1.14B232,2013-07-07 12:01:00,
2013-07-07 05:06:00,52.6,50.6,29.87,NW,319,0.0,0.0,93,0.00,,,0.00,0,WeatherCatV1.14B232,2013-07-07 12:06:00,
2013-07-07 05:11:00,52.5,50.5,29.87,NW,319,0.0,0.0,93,0.00,,,0.00,0,WeatherCatV1.14B232,2013-07-07 12:11:00,
2013-07-07 05:16:00,52.3,50.3,29.88,NW,319,0.0,0.0,93,0.00,,,0.00,0,WeatherCatV1.14B232,2013-07-07 12:16:00,
2013-07-07 05:21:00,52.2,50.2,29.88,NW,319,0.0,0.0,93,0.00,,,0.00,0,WeatherCatV1.14B232,2013-07-07 12:21:00,
2013-07-07 05:26:00,52.2,50.2,29.88,NW,319,0.0,0.0,93,0.00,,,0.00,0,WeatherCatV1.14B232,2013-07-07 12:26:00,
2013-07-07 05:31:00,52.0,50.0,29.88,NW,319,0.0,0.0,93,0.00,,,0.00,5,WeatherCatV1.14B232,2013-07-07 12:31:00,
2013-07-07 05:36:00,51.9,49.9,29.88,NW,319,0.0,0.0,93,0.00,,,0.00,5,WeatherCatV1.14B232,2013-07-07 12:36:00,
2013-07-07 05:41:00,51.9,49.9,29.88,NW,319,0.0,0.0,93,0.00,,,0.00,7,WeatherCatV1.14B232,2013-07-07 12:41:00,
2013-07-07 05:46:00,51.7,50.0,29.88,NW,319,0.0,0.0,94,0.00,,,0.00,9,WeatherCatV1.14B232,2013-07-07 12:46:00,
2013-07-07 05:51:00,51.7,50.0,29.88,NW,319,0.0,0.0,94,0.00,,,0.00,12,WeatherCatV1.14B232,2013-07-07 12:51:00,
2013-07-07 05:56:00,51.7,50.0,29.88,NW,319,0.0,0.0,94,0.00,,,0.00,16,WeatherCatV1.14B232,2013-07-07 12:56:00,
2013-07-07 06:01:00,51.6,49.9,29.89,NW,319,0.0,0.0,94,0.00,,,0.00,23,WeatherCatV1.14B232,2013-07-07 13:01:00,
2013-07-07 06:06:00,51.6,49.9,29.89,NW,319,0.0,0.0,94,0.00,,,0.00,30,WeatherCatV1.14B232,2013-07-07 13:06:00,
2013-07-07 06:11:00,51.6,49.9,29.89,NW,319,0.0,0.0,94,0.00,,,0.00,39,WeatherCatV1.14B232,2013-07-07 13:11:00,
2013-07-07 06:16:00,51.6,49.9,29.89,NW,319,0.0,0.0,94,0.00,,,0.00,42,WeatherCatV1.14B232,2013-07-07 13:16:00,
2013-07-07 06:21:00,51.6,49.9,29.89,NW,319,0.0,0.0,94,0.00,,,0.00,51,WeatherCatV1.14B232,2013-07-07 13:21:00,
2013-07-07 06:26:00,51.6,50.2,29.89,NW,319,0.0,0.0,95,0.00,,,0.00,56,WeatherCatV1.14B232,2013-07-07 13:26:00,
2013-07-07 06:31:00,51.7,50.3,29.89,NW,319,0.0,0.0,95,0.00,,,0.00,76,WeatherCatV1.14B232,2013-07-07 13:31:00,
2013-07-07 06:36:00,51.9,50.5,29.89,NW,319,0.0,0.0,95,0.00,,,0.00,46,WeatherCatV1.14B232,2013-07-07 13:36:00,
2013-07-07 06:41:00,52.0,50.6,29.89,NW,319,0.0,0.0,95,0.00,,,0.00,46,WeatherCatV1.14B232,2013-07-07 13:41:00,
2013-07-07 06:46:00,52.3,50.9,29.89,NW,319,0.0,0.0,95,0.00,,,0.00,49,WeatherCatV1.14B232,2013-07-07 13:46:00,
2013-07-07 06:51:00,52.5,51.1,29.89,NW,319,0.0,0.0,95,0.00,,,0.00,60,WeatherCatV1.14B232,2013-07-07 13:51:00,
2013-07-07 06:56:00,52.8,51.7,29.89,NW,319,0.0,0.0,96,0.00,,,0.00,70,WeatherCatV1.14B232,2013-07-07 13:56:00,
2013-07-07 07:01:00,53.1,52.0,29.90,NW,319,0.0,0.0,96,0.00,,,0.00,58,WeatherCatV1.14B232,2013-07-07 14:01:00,
2013-07-07 07:06:00,53.3,52.2,29.90,NW,319,0.0,0.0,96,0.00,,,0.00,58,WeatherCatV1.14B232,2013-07-07 14:06:00,
2013-07-07 07:11:00,53.8,52.7,29.90,NW,319,0.0,0.0,96,0.00,,,0.00,67,WeatherCatV1.14B232,2013-07-07 14:11:00,
2013-07-07 07:16:00,54.1,53.0,29.89,NW,319,0.0,0.0,96,0.00,,,0.00,86,WeatherCatV1.14B232,2013-07-07 14:16:00,
2013-07-07 07:21:00,54.4,53.3,29.89,NW,319,0.0,0.0,96,0.00,,,0.00,220,WeatherCatV1.14B232,2013-07-07 14:21:00,
2013-07-07 07:26:00,54.7,53.6,29.89,NW,319,0.0,0.0,96,0.00,,,0.00,244,WeatherCatV1.14B232,2013-07-07 14:26:00,
2013-07-07 07:31:00,55.3,54.5,29.89,NW,319,0.0,0.0,97,0.00,,,0.00,258,WeatherCatV1.14B232,2013-07-07 14:31:00,
2013-07-07 07:36:00,55.7,54.9,29.89,NW,319,0.0,0.0,97,0.00,,,0.00,272,WeatherCatV1.14B232,2013-07-07 14:36:00,
2013-07-07 07:41:00,56.5,55.7,29.89,NW,319,0.0,0.0,97,0.00,,,0.00,287,WeatherCatV1.14B232,2013-07-07 14:41:00,
2013-07-07 07:46:00,57.0,56.2,29.90,NW,319,0.0,0.0,97,0.00,,,0.00,308,WeatherCatV1.14B232,2013-07-07 14:46:00,
2013-07-07 07:51:00,57.5,56.7,29.90,NW,319,0.0,0.0,97,0.00,,,0.00,320,WeatherCatV1.14B232,2013-07-07 14:51:00,
2013-07-07 07:56:00,57.8,56.7,29.90,NW,319,0.0,1.0,96,0.00,,,0.00,330,WeatherCatV1.14B232,2013-07-07 14:56:00,
2013-07-07 08:01:00,58.3,56.9,29.90,NW,319,0.0,0.0,95,0.00,,,0.00,339,WeatherCatV1.14B232,2013-07-07 15:01:00,
2013-07-07 08:06:00,58.9,56.9,29.90,NW,319,0.0,1.0,93,0.00,,,0.00,357,WeatherCatV1.14B232,2013-07-07 15:06:00,
2013-07-07 08:11:00,59.5,56.9,29.90,NW,319,0.0,0.0,91,0.00,,,0.00,369,WeatherCatV1.14B232,2013-07-07 15:11:00,
2013-07-07 08:16:00,60.2,56.6,29.90,NW,319,0.0,0.0,88,0.00,,,0.00,381,WeatherCatV1.14B232,2013-07-07 15:16:00,
2013-07-07 08:21:00,61.3,57.1,29.90,NW,319,0.0,0.0,86,0.00,,,0.00,396,WeatherCatV1.14B232,2013-07-07 15:21:00,
2013-07-07 08:26:00,62.3,56.4,29.90,NW,319,0.0,0.0,81,0.00,,,0.00,411,WeatherCatV1.14B232,2013-07-07 15:26:00,
2013-07-07 08:31:00,63.4,56.8,29.90,NW,319,0.0,0.0,79,0.00,,,0.00,424,WeatherCatV1.14B232,2013-07-07 15:31:00,
2013-07-07 08:36:00,64.3,56.2,29.90,NW,319,0.0,1.0,75,0.00,,,0.00,436,WeatherCatV1.14B232,2013-07-07 15:36:00,
2013-07-07 08:41:00,65.3,56.8,29.90,NW,319,0.0,0.0,74,0.00,,,0.00,450,WeatherCatV1.14B232,2013-07-07 15:41:00,
2013-07-07 08:46:00,66.0,57.1,29.90,NE,42,0.0,0.0,73,0.00,,,0.00,466,WeatherCatV1.14B232,2013-07-07 15:46:00,
2013-07-07 08:51:00,66.4,56.7,29.90,NE,42,0.0,0.0,71,0.00,,,0.00,480,WeatherCatV1.14B232,2013-07-07 15:51:00,
2013-07-07 08:56:00,66.1,55.2,29.90,East,83,0.0,0.0,68,0.00,,,0.00,492,WeatherCatV1.14B232,2013-07-07 15:56:00,
2013-07-07 09:01:00,66.3,56.6,29.90,East,83,0.0,0.0,71,0.00,,,0.00,503,WeatherCatV1.14B232,2013-07-07 16:01:00,
2013-07-07 09:06:00,66.9,57.2,29.90,East,96,0.0,0.0,71,0.00,,,0.00,520,WeatherCatV1.14B232,2013-07-07 16:06:00,
2013-07-07 09:11:00,66.9,56.4,29.90,East,96,0.0,1.0,69,0.00,,,0.00,527,WeatherCatV1.14B232,2013-07-07 16:11:00,
2013-07-07 09:16:00,66.9,56.4,29.89,East,96,0.0,0.0,69,0.00,,,0.00,541,WeatherCatV1.14B232,2013-07-07 16:16:00,
2013-07-07 09:21:00,66.8,57.1,29.89,SSW,210,0.0,0.0,71,0.00,,,0.00,561,WeatherCatV1.14B232,2013-07-07 16:21:00,
2013-07-07 09:26:00,67.6,56.7,29.89,WSW,244,0.0,0.0,68,0.00,,,0.00,573,WeatherCatV1.14B232,2013-07-07 16:26:00,
2013-07-07 09:31:00,68.4,57.4,29.90,South,171,0.0,1.0,68,0.00,,,0.00,587,WeatherCatV1.14B232,2013-07-07 16:31:00,
2013-07-07 09:36:00,68.4,57.0,29.90,West,265,0.0,1.0,67,0.00,,,0.00,598,WeatherCatV1.14B232,2013-07-07 16:36:00,
2013-07-07 09:41:00,68.3,56.5,29.90,WNW,294,0.0,1.0,66,0.00,,,0.00,610,WeatherCatV1.14B232,2013-07-07 16:41:00,
2013-07-07 09:46:00,68.1,55.9,29.89,SW,230,0.0,2.0,65,0.00,,,0.00,621,WeatherCatV1.14B232,2013-07-07 16:46:00,
2013-07-07 09:51:00,67.8,56.8,29.89,ESE,122,0.0,3.0,68,0.00,,,0.00,633,WeatherCatV1.14B232,2013-07-07 16:51:00,
2013-07-07 09:56:00,67.8,56.0,29.89,SSW,194,0.0,4.0,66,0.00,,,0.00,643,WeatherCatV1.14B232,2013-07-07 16:56:00,
2013-07-07 10:01:00,68.1,56.3,29.89,SSW,207,6.0,6.0,66,0.00,,,0.00,656,WeatherCatV1.14B232,2013-07-07 17:01:00,
2013-07-07 10:06:00,68.3,56.5,29.89,WSW,248,0.0,1.0,66,0.00,,,0.00,664,WeatherCatV1.14B232,2013-07-07 17:06:00,
2013-07-07 10:11:00,69.1,56.4,29.89,WSW,248,0.0,1.0,64,0.00,,,0.00,677,WeatherCatV1.14B232,2013-07-07 17:11:00,
2013-07-07 10:16:00,69.8,56.6,29.89,WSW,254,0.0,1.0,63,0.00,,,0.00,693,WeatherCatV1.14B232,2013-07-07 17:16:00,
2013-07-07 10:21:00,69.6,56.9,29.89,SW,218,0.0,3.0,64,0.00,,,0.00,705,WeatherCatV1.14B232,2013-07-07 17:21:00,
2013-07-07 10:26:00,69.6,56.9,29.89,SW,224,0.0,1.0,64,0.00,,,0.00,712,WeatherCatV1.14B232,2013-07-07 17:26:00,
2013-07-07 10:31:00,70.6,56.5,29.89,SW,224,0.0,3.0,61,0.00,,,0.00,728,WeatherCatV1.14B232,2013-07-07 17:31:00,
2013-07-07 10:36:00,70.4,55.4,29.89,SW,222,1.0,4.0,59,0.00,,,0.00,735,WeatherCatV1.14B232,2013-07-07 17:36:00,
2013-07-07 10:41:00,69.8,55.7,29.89,SW,217,0.0,1.0,61,0.00,,,0.00,740,WeatherCatV1.14B232,2013-07-07 17:41:00,
2013-07-07 10:46:00,70.4,56.3,29.89,North,355,0.0,2.0,61,0.00,,,0.00,759,WeatherCatV1.14B232,2013-07-07 17:46:00,
2013-07-07 10:51:00,70.9,55.4,29.89,West,272,1.0,1.0,58,0.00,,,0.00,772,WeatherCatV1.14B232,2013-07-07 17:51:00,
2013-07-07 10:56:00,70.4,55.8,29.89,WNW,286,2.0,4.0,60,0.00,,,0.00,788,WeatherCatV1.14B232,2013-07-07 17:56:00,
2013-07-07 11:01:00,70.8,54.8,29.89,North,355,0.0,1.0,57,0.00,,,0.00,492,WeatherCatV1.14B232,2013-07-07 18:01:00,
2013-07-07 11:06:00,71.8,57.2,29.89,North,355,0.0,0.0,60,0.00,,,0.00,793,WeatherCatV1.14B232,2013-07-07 18:06:00,
2013-07-07 11:11:00,71.6,57.4,29.89,NW,318,0.0,2.0,61,0.00,,,0.00,721,WeatherCatV1.14B232,2013-07-07 18:11:00,
2013-07-07 11:16:00,72.3,58.1,29.89,WSW,240,3.0,6.0,61,0.00,,,0.00,812,WeatherCatV1.14B232,2013-07-07 18:16:00,
2013-07-07 11:21:00,71.8,57.6,29.89,West,268,0.0,1.0,61,0.00,,,0.00,821,WeatherCatV1.14B232,2013-07-07 18:21:00,
2013-07-07 11:26:00,71.6,57.9,29.89,SE,136,0.0,3.0,62,0.00,,,0.00,835,WeatherCatV1.14B232,2013-07-07 18:26:00,
2013-07-07 11:31:00,71.5,57.3,29.89,SW,215,1.0,4.0,61,0.00,,,0.00,838,WeatherCatV1.14B232,2013-07-07 18:31:00,
2013-07-07 11:36:00,72.0,58.3,29.89,SE,135,0.0,1.0,62,0.00,,,0.00,844,WeatherCatV1.14B232,2013-07-07 18:36:00,
2013-07-07 11:41:00,72.8,58.1,29.89,WSW,242,0.0,5.0,60,0.00,,,0.00,853,WeatherCatV1.14B232,2013-07-07 18:41:00,
2013-07-07 11:46:00,72.8,58.1,29.88,WNW,300,0.0,3.0,60,0.00,,,0.00,872,WeatherCatV1.14B232,2013-07-07 18:46:00,
2013-07-07 11:51:00,73.3,58.1,29.88,WNW,298,0.0,5.0,59,0.00,,,0.00,895,WeatherCatV1.14B232,2013-07-07 18:51:00,
2013-07-07 11:56:00,73.0,58.3,29.88,SW,235,1.0,1.0,60,0.00,,,0.00,705,WeatherCatV1.14B232,2013-07-07 18:56:00,
2013-07-07 12:01:00,72.5,58.3,29.88,NW,305,1.0,4.0,61,0.00,,,0.00,837,WeatherCatV1.14B232,2013-07-07 19:01:00,
2013-07-07 12:06:00,72.3,59.0,29.88,SW,229,0.0,4.0,63,0.00,,,0.00,733,WeatherCatV1.14B232,2013-07-07 19:06:00,
2013-07-07 12:11:00,73.0,58.3,29.88,SW,221,3.0,3.0,60,0.00,,,0.00,656,WeatherCatV1.14B232,2013-07-07 19:11:00,
2013-07-07 12:16:00,72.5,58.3,29.88,West,259,0.0,2.0,61,0.00,,,0.00,638,WeatherCatV1.14B232,2013-07-07 19:16:00,
2013-07-07 12:21:00,72.8,58.1,29.88,SSW,210,1.0,5.0,60,0.00,,,0.00,817,WeatherCatV1.14B232,2013-07-07 19:21:00,
2013-07-07 12:26:00,72.3,59.9,29.88,West,267,0.0,1.0,65,0.00,,,0.00,990,WeatherCatV1.14B232,2013-07-07 19:26:00,
2013-07-07 12:31:00,74.4,59.6,29.88,WNW,296,0.0,2.0,60,0.00,,,0.00,970,WeatherCatV1.14B232,2013-07-07 19:31:00,
2013-07-07 12:36:00,74.9,58.6,29.88,SW,233,2.0,2.0,57,0.00,,,0.00,974,WeatherCatV1.14B232,2013-07-07 19:36:00,
2013-07-07 12:41:00,73.2,58.0,29.88,SW,215,1.0,7.0,59,0.00,,,0.00,886,WeatherCatV1.14B232,2013-07-07 19:41:00,
2013-07-07 12:46:00,72.3,58.1,29.88,SW,227,0.0,4.0,61,0.00,,,0.00,953,WeatherCatV1.14B232,2013-07-07 19:46:00,
2013-07-07 12:51:00,72.5,57.3,29.88,SW,225,2.0,3.0,59,0.00,,,0.00,953,WeatherCatV1.14B232,2013-07-07 19:51:00,
2013-07-07 12:56:00,72.8,58.6,29.88,WSW,242,0.0,5.0,61,0.00,,,0.00,803,WeatherCatV1.14B232,2013-07-07 19:56:00,
2013-07-07 13:01:00,72.8,57.1,29.88,WSW,254,8.0,8.0,58,0.00,,,0.00,835,WeatherCatV1.14B232,2013-07-07 20:01:00,
2013-07-07 13:06:00,73.3,57.1,29.88,SSW,202,5.0,5.0,57,0.00,,,0.00,738,WeatherCatV1.14B232,2013-07-07 20:06:00,
2013-07-07 13:11:00,72.8,58.1,29.88,NE,37,0.0,2.0,60,0.00,,,0.00,670,WeatherCatV1.14B232,2013-07-07 20:11:00,
2013-07-07 13:16:00,73.0,57.3,29.87,WNW,291,4.0,8.0,58,0.00,,,0.00,726,WeatherCatV1.14B232,2013-07-07 20:16:00,
2013-07-07 13:21:00,73.3,57.6,29.87,West,269,1.0,6.0,58,0.00,,,0.00,932,WeatherCatV1.14B232,2013-07-07 20:21:00,
2013-07-07 13:26:00,73.5,58.3,29.87,WNW,284,0.0,1.0,59,0.00,,,0.00,694,WeatherCatV1.14B232,2013-07-07 20:26:00,
2013-07-07 13:31:00,74.0,59.2,29.87,SW,236,0.0,3.0,60,0.00,,,0.00,789,WeatherCatV1.14B232,2013-07-07 20:31:00,
2013-07-07 13:36:00,73.7,57.5,29.87,SW,234,4.0,6.0,57,0.00,,,0.00,554,WeatherCatV1.14B232,2013-07-07 20:36:00,
2013-07-07 13:41:00,72.7,58.5,29.87,South,183,1.0,3.0,61,0.00,,,0.00,536,WeatherCatV1.14B232,2013-07-07 20:41:00,
2013-07-07 13:46:00,73.3,59.0,29.87,WSW,242,1.0,1.0,61,0.00,,,0.00,573,WeatherCatV1.14B232,2013-07-07 20:46:00,
2013-07-07 13:51:00,73.2,59.4,29.87,SE,138,0.0,5.0,62,0.00,,,0.00,526,WeatherCatV1.14B232,2013-07-07 20:51:00,
2013-07-07 13:56:00,73.0,58.3,29.87,South,176,0.0,6.0,60,0.00,,,0.00,788,WeatherCatV1.14B232,2013-07-07 20:56:00,
2013-07-07 14:01:00,73.2,58.5,29.87,SSW,209,3.0,5.0,60,0.00,,,0.00,703,WeatherCatV1.14B232,2013-07-07 21:01:00,
2013-07-07 14:06:00,73.9,58.7,29.87,South,187,0.0,3.0,59,0.00,,,0.00,1004,WeatherCatV1.14B232,2013-07-07 21:06:00,
2013-07-07 14:11:00,73.9,58.7,29.87,WSW,240,0.0,5.0,59,0.00,,,0.00,809,WeatherCatV1.14B232,2013-07-07 21:11:00,
2013-07-07 14:16:00,74.9,59.1,29.87,SSW,213,1.0,3.0,58,0.00,,,0.00,842,WeatherCatV1.14B232,2013-07-07 21:16:00,
2013-07-07 14:21:00,74.6,58.3,29.87,WSW,238,0.0,5.0,57,0.00,,,0.00,712,WeatherCatV1.14B232,2013-07-07 21:21:00,
2013-07-07 14:26:00,75.8,59.0,29.87,WNW,298,2.0,3.0,56,0.00,,,0.00,893,WeatherCatV1.14B232,2013-07-07 21:26:00,
2013-07-07 14:31:00,76.5,59.1,29.87,WNW,300,1.0,2.0,55,0.00,,,0.00,907,WeatherCatV1.14B232,2013-07-07 21:31:00,
2013-07-07 14:36:00,76.8,58.9,29.87,WSW,242,2.0,7.0,54,0.00,,,0.00,788,WeatherCatV1.14B232,2013-07-07 21:36:00,
2013-07-07 14:41:00,76.1,59.2,29.87,West,259,1.0,5.0,56,0.00,,,0.00,837,WeatherCatV1.14B232,2013-07-07 21:41:00,
2013-07-07 14:46:00,76.0,57.1,29.87,SW,234,1.0,4.0,52,0.00,,,0.00,733,WeatherCatV1.14B232,2013-07-07 21:46:00,
2013-07-07 14:51:00,74.7,57.9,29.87,WSW,245,1.0,5.0,56,0.00,,,0.00,703,WeatherCatV1.14B232,2013-07-07 21:51:00,
2013-07-07 14:56:00,74.9,58.6,29.87,West,272,4.0,6.0,57,0.00,,,0.00,719,WeatherCatV1.14B232,2013-07-07 21:56:00,
2013-07-07 15:01:00,75.4,58.6,29.86,SSW,208,0.0,2.0,56,0.00,,,0.00,877,WeatherCatV1.14B232,2013-07-07 22:01:00,
2013-07-07 15:06:00,76.1,59.2,29.86,South,171,0.0,2.0,56,0.00,,,0.00,844,WeatherCatV1.14B232,2013-07-07 22:06:00,
2013-07-07 15:11:00,75.4,58.1,29.86,SSW,207,1.0,3.0,55,0.00,,,0.00,768,WeatherCatV1.14B232,2013-07-07 22:11:00,
2013-07-07 15:16:00,76.1,60.2,29.86,NW,308,0.0,3.0,58,0.00,,,0.00,865,WeatherCatV1.14B232,2013-07-07 22:16:00,
2013-07-07 15:21:00,76.3,58.9,29.86,West,262,1.0,4.0,55,0.00,,,0.00,881,WeatherCatV1.14B232,2013-07-07 22:21:00,
2013-07-07 15:26:00,76.3,59.4,29.86,SE,131,1.0,5.0,56,0.00,,,0.00,835,WeatherCatV1.14B232,2013-07-07 22:26:00,
2013-07-07 15:31:00,76.8,57.8,29.86,WSW,241,1.0,6.0,52,0.00,,,0.00,838,WeatherCatV1.14B232,2013-07-07 22:31:00,
2013-07-07 15:36:00,76.0,58.1,29.86,SW,231,0.0,6.0,54,0.00,,,0.00,860,WeatherCatV1.14B232,2013-07-07 22:36:00,
2013-07-07 15:41:00,75.8,58.5,29.86,West,274,0.0,2.0,55,0.00,,,0.00,364,WeatherCatV1.14B232,2013-07-07 22:41:00,
2013-07-07 15:46:00,74.9,59.6,29.86,West,264,0.0,2.0,59,0.00,,,0.00,719,WeatherCatV1.14B232,2013-07-07 22:46:00,
2013-07-07 15:51:00,75.1,59.8,29.86,SSE,162,2.0,3.0,59,0.00,,,0.00,763,WeatherCatV1.14B232,2013-07-07 22:51:00,
2013-07-07 15:56:00,74.9,58.6,29.86,West,267,0.0,4.0,57,0.00,,,0.00,626,WeatherCatV1.14B232,2013-07-07 22:56:00,
2013-07-07 16:01:00,76.1,58.7,29.85,West,267,0.0,0.0,55,0.00,,,0.00,766,WeatherCatV1.14B232,2013-07-07 23:01:00,
2013-07-07 16:06:00,76.8,59.4,29.85,WSW,238,0.0,0.0,55,0.00,,,0.00,726,WeatherCatV1.14B232,2013-07-07 23:06:00,
2013-07-07 16:12:00,77.0,59.1,29.85,West,264,1.0,7.0,54,0.00,,,0.00,708,WeatherCatV1.14B232,2013-07-07 23:12:00,
2013-07-07 16:17:00,76.1,58.7,29.85,SW,229,0.0,1.0,55,0.00,,,0.00,691,WeatherCatV1.14B232,2013-07-07 23:17:00,
2013-07-07 16:22:00,76.1,57.7,29.85,SSW,193,1.0,5.0,53,0.00,,,0.00,677,WeatherCatV1.14B232,2013-07-07 23:22:00,
2013-07-07 16:27:00,76.3,58.4,29.85,WSW,244,0.0,3.0,54,0.00,,,0.00,666,WeatherCatV1.14B232,2013-07-07 23:27:00,
2013-07-07 16:32:00,76.0,57.6,29.85,West,271,1.0,3.0,53,0.00,,,0.00,652,WeatherCatV1.14B232,2013-07-07 23:32:00,
2013-07-07 16:37:00,76.5,57.5,29.85,SSW,199,1.0,2.0,52,0.00,,,0.00,640,WeatherCatV1.14B232,2013-07-07 23:37:00,
2013-07-07 16:42:00,76.5,57.0,29.85,WSW,256,0.0,1.0,51,0.00,,,0.00,626,WeatherCatV1.14B232,2013-07-07 23:42:00,
2013-07-07 16:47:00,76.8,58.9,29.84,SW,232,1.0,3.0,54,0.00,,,0.00,610,WeatherCatV1.14B232,2013-07-07 23:47:00,
2013-07-07 16:52:00,77.4,57.3,29.84,WSW,252,0.0,0.0,50,0.00,,,0.00,598,WeatherCatV1.14B232,2013-07-07 23:52:00,
2013-07-07 16:57:00,77.0,56.9,29.84,SW,215,0.0,6.0,50,0.00,,,0.00,587,WeatherCatV1.14B232,2013-07-07 23:57:00,
2013-07-07 17:02:00,76.7,56.1,29.84,WSW,241,0.0,1.0,49,0.00,,,0.00,573,WeatherCatV1.14B232,2013-07-08 00:02:00,
2013-07-07 17:07:00,77.2,55.4,29.84,WSW,248,0.0,1.0,47,0.00,,,0.00,557,WeatherCatV1.14B232,2013-07-08 00:07:00,
2013-07-07 17:12:00,76.5,55.9,29.84,WSW,245,1.0,5.0,49,0.00,,,0.00,548,WeatherCatV1.14B232,2013-07-08 00:12:00,
2013-07-07 17:17:00,76.5,55.9,29.84,SW,231,0.0,3.0,49,0.00,,,0.00,536,WeatherCatV1.14B232,2013-07-08 00:17:00,
2013-07-07 17:22:00,76.8,56.7,29.84,West,275,0.0,2.0,50,0.00,,,0.00,520,WeatherCatV1.14B232,2013-07-08 00:22:00,
2013-07-07 17:27:00,76.8,57.3,29.84,ESE,112,1.0,3.0,51,0.00,,,0.00,510,WeatherCatV1.14B232,2013-07-08 00:27:00,
2013-07-07 17:32:00,76.1,56.1,29.84,West,269,0.0,0.0,50,0.00,,,0.00,496,WeatherCatV1.14B232,2013-07-08 00:32:00,
2013-07-07 17:37:00,76.1,56.6,29.84,West,269,0.0,1.0,51,0.00,,,0.00,169,WeatherCatV1.14B232,2013-07-08 00:37:00,
2013-07-07 17:42:00,76.0,56.5,29.84,West,269,0.0,2.0,51,0.00,,,0.00,104,WeatherCatV1.14B232,2013-07-08 00:42:00,
2013-07-07 17:47:00,75.4,57.6,29.84,SW,230,0.0,1.0,54,0.00,,,0.00,84,WeatherCatV1.14B232,2013-07-08 00:47:00,
2013-07-07 17:52:00,75.3,57.0,29.84,SW,229,0.0,1.0,53,0.00,,,0.00,90,WeatherCatV1.14B232,2013-07-08 00:52:00,
2013-07-07 17:57:00,75.3,58.5,29.84,SW,229,0.0,2.0,56,0.00,,,0.00,176,WeatherCatV1.14B232,2013-07-08 00:57:00,
2013-07-07 18:02:00,75.3,55.9,29.84,WSW,242,0.0,4.0,51,0.00,,,0.00,264,WeatherCatV1.14B232,2013-07-08 01:02:00,
2013-07-07 18:07:00,75.3,55.4,29.84,WSW,248,0.0,1.0,50,0.00,,,0.00,348,WeatherCatV1.14B232,2013-07-08 01:07:00,
2013-07-07 18:12:00,75.1,56.3,29.84,SW,223,0.0,1.0,52,0.00,,,0.00,141,WeatherCatV1.14B232,2013-07-08 01:12:00,
2013-07-07 18:17:00,75.3,57.0,29.84,SW,223,0.0,1.0,53,0.00,,,0.00,304,WeatherCatV1.14B232,2013-07-08 01:17:00,
2013-07-07 18:22:00,75.1,57.3,29.84,West,261,0.0,1.0,54,0.00,,,0.00,357,WeatherCatV1.14B232,2013-07-08 01:22:00,
2013-07-07 18:27:00,75.1,56.8,29.84,WSW,244,0.0,1.0,53,0.00,,,0.00,341,WeatherCatV1.14B232,2013-07-08 01:27:00,
2013-07-07 18:32:00,75.3,56.4,29.84,West,275,1.0,3.0,52,0.00,,,0.00,330,WeatherCatV1.14B232,2013-07-08 01:32:00,
2013-07-07 18:37:00,75.1,55.7,29.84,West,272,0.0,0.0,51,0.00,,,0.00,225,WeatherCatV1.14B232,2013-07-08 01:37:00,
2013-07-07 18:42:00,74.9,56.1,29.84,WSW,253,0.0,3.0,52,0.00,,,0.00,49,WeatherCatV1.14B232,2013-07-08 01:42:00,
2013-07-07 18:47:00,74.7,56.4,29.84,WSW,248,2.0,2.0,53,0.00,,,0.00,90,WeatherCatV1.14B232,2013-07-08 01:47:00,
2013-07-07 18:52:00,74.6,56.8,29.84,West,272,3.0,4.0,54,0.00,,,0.00,255,WeatherCatV1.14B232,2013-07-08 01:52:00,
2013-07-07 18:57:00,74.6,56.3,29.84,WSW,249,0.0,3.0,53,0.00,,,0.00,183,WeatherCatV1.14B232,2013-07-08 01:57:00,
2013-07-07 19:02:00,74.4,57.7,29.85,SW,236,0.0,0.0,56,0.00,,,0.00,54,WeatherCatV1.14B232,2013-07-08 02:02:00,
2013-07-07 19:07:00,74.2,58.0,29.85,SW,227,0.0,1.0,57,0.00,,,0.00,42,WeatherCatV1.14B232,2013-07-08 02:07:00,
2013-07-07 19:12:00,74.2,58.5,29.85,SW,227,0.0,0.0,58,0.00,,,0.00,63,WeatherCatV1.14B232,2013-07-08 02:12:00,
2013-07-07 19:17:00,74.0,58.3,29.85,WSW,245,1.0,3.0,58,0.00,,,0.00,49,WeatherCatV1.14B232,2013-07-08 02:17:00,
2013-07-07 19:22:00,74.0,58.7,29.85,WSW,238,0.0,3.0,59,0.00,,,0.00,39,WeatherCatV1.14B232,2013-07-08 02:22:00,
2013-07-07 19:27:00,73.9,59.1,29.85,WSW,238,0.0,0.0,60,0.00,,,0.00,33,WeatherCatV1.14B232,2013-07-08 02:27:00,
2013-07-07 19:32:00,73.9,59.1,29.85,NNW,330,0.0,2.0,60,0.00,,,0.00,40,WeatherCatV1.14B232,2013-07-08 02:32:00,
2013-07-07 19:37:00,73.7,59.9,29.85,WSW,240,0.0,3.0,62,0.00,,,0.00,33,WeatherCatV1.14B232,2013-07-08 02:37:00,
2013-07-07 19:42:00,73.7,59.4,29.85,WSW,240,0.0,0.0,61,0.00,,,0.00,30,WeatherCatV1.14B232,2013-07-08 02:42:00,
2013-07-07 19:47:00,73.5,59.2,29.86,WSW,240,0.0,0.0,61,0.00,,,0.00,32,WeatherCatV1.14B232,2013-07-08 02:47:00,
2013-07-07 19:52:00,73.3,59.0,29.86,SW,235,0.0,1.0,61,0.00,,,0.00,30,WeatherCatV1.14B232,2013-07-08 02:52:00,
2013-07-07 19:57:00,73.2,59.4,29.86,SW,235,0.0,0.0,62,0.00,,,0.00,28,WeatherCatV1.14B232,2013-07-08 02:57:00,
2013-07-07 20:02:00,73.0,59.2,29.86,SW,235,0.0,0.0,62,0.00,,,0.00,26,WeatherCatV1.14B232,2013-07-08 03:02:00,
2013-07-07 20:07:00,72.8,59.5,29.86,SW,235,0.0,0.0,63,0.00,,,0.00,25,WeatherCatV1.14B232,2013-07-08 03:07:00,
2013-07-07 20:12:00,72.5,59.6,29.86,SW,235,0.0,1.0,64,0.00,,,0.00,23,WeatherCatV1.14B232,2013-07-08 03:12:00,
2013-07-07 20:17:00,72.1,58.3,29.87,West,275,0.0,1.0,62,0.00,,,0.00,21,WeatherCatV1.14B232,2013-07-08 03:17:00,
2013-07-07 20:22:00,71.8,57.2,29.87,West,275,0.0,1.0,60,0.00,,,0.00,19,WeatherCatV1.14B232,2013-07-08 03:22:00,
2013-07-07 20:27:00,71.5,56.9,29.87,West,276,0.0,0.0,60,0.00,,,0.00,18,WeatherCatV1.14B232,2013-07-08 03:27:00,
2013-07-07 20:32:00,71.1,57.0,29.87,West,276,0.0,0.0,61,0.00,,,0.00,16,WeatherCatV1.14B232,2013-07-08 03:32:00,
2013-07-07 20:37:00,70.9,57.7,29.87,West,276,0.0,0.0,63,0.00,,,0.00,14,WeatherCatV1.14B232,2013-07-08 03:37:00,
2013-07-07 20:42:00,70.6,57.4,29.87,West,276,0.0,0.0,63,0.00,,,0.00,12,WeatherCatV1.14B232,2013-07-08 03:42:00,
2013-07-07 20:47:00,70.4,57.6,29.87,West,276,0.0,0.0,64,0.00,,,0.00,11,WeatherCatV1.14B232,2013-07-08 03:47:00,
2013-07-07 20:52:00,70.3,58.0,29.87,West,276,0.0,0.0,65,0.00,,,0.00,9,WeatherCatV1.14B232,2013-07-08 03:52:00,
2013-07-07 20:57:00,69.9,58.4,29.87,West,276,0.0,0.0,67,0.00,,,0.00,5,WeatherCatV1.14B232,2013-07-08 03:57:00,
2013-07-07 21:01:00,69.6,58.1,29.88,West,276,0.0,0.0,67,0.00,,,0.00,5,WeatherCatV1.14B232,2013-07-08 04:01:00,
2013-07-07 21:06:00,69.3,58.3,29.88,West,276,0.0,0.0,68,0.00,,,0.00,0,WeatherCatV1.14B232,2013-07-08 04:06:00,
2013-07-07 21:11:00,68.8,58.6,29.88,West,276,0.0,0.0,70,0.00,,,0.00,0,WeatherCatV1.14B232,2013-07-08 04:11:00,
2013-07-07 21:16:00,68.3,58.1,29.88,West,276,0.0,0.0,70,0.00,,,0.00,0,WeatherCatV1.14B232,2013-07-08 04:16:00,
2013-07-07 21:21:00,67.8,58.0,29.88,West,276,0.0,0.0,71,0.00,,,0.00,0,WeatherCatV1.14B232,2013-07-08 04:21:00,
2013-07-07 21:26:00,67.1,57.0,29.88,West,276,0.0,0.0,70,0.00,,,0.00,0,WeatherCatV1.14B232,2013-07-08 04:26:00,
2013-07-07 21:31:00,66.6,56.9,29.88,West,276,0.0,0.0,71,0.00,,,0.00,0,WeatherCatV1.14B232,2013-07-08 04:31:00,
2013-07-07 21:36:00,66.1,56.8,29.88,West,276,0.0,0.0,72,0.00,,,0.00,0,WeatherCatV1.14B232,2013-07-08 04:36:00,
2013-07-07 21:41:00,65.8,57.3,29.88,West,276,0.0,0.0,74,0.00,,,0.00,0,WeatherCatV1.14B232,2013-07-08 04:41:00,
2013-07-07 21:46:00,65.3,57.2,29.89,West,276,0.0,0.0,75,0.00,,,0.00,0,WeatherCatV1.14B232,2013-07-08 04:46:00,
2013-07-07 21:51:00,64.8,56.7,29.89,West,276,0.0,0.0,75,0.00,,,0.00,0,WeatherCatV1.14B232,2013-07-08 04:51:00,
2013-07-07 21:56:00,64.3,56.6,29.89,West,276,0.0,0.0,76,0.00,,,0.00,0,WeatherCatV1.14B232,2013-07-08 04:56:00,
2013-07-07 22:01:00,63.9,56.5,29.89,West,276,0.0,0.0,77,0.00,,,0.00,0,WeatherCatV1.14B232,2013-07-08 05:01:00,
2013-07-07 22:06:00,63.5,56.2,29.89,West,276,0.0,0.0,77,0.00,,,0.00,0,WeatherCatV1.14B232,2013-07-08 05:06:00,
2013-07-07 22:11:00,63.2,55.5,29.89,West,276,0.0,0.0,76,0.00,,,0.00,0,WeatherCatV1.14B232,2013-07-08 05:11:00,
2013-07-07 22:16:00,62.9,55.6,29.89,West,276,0.0,0.0,77,0.00,,,0.00,0,WeatherCatV1.14B232,2013-07-08 05:16:00,
2013-07-07 22:21:00,62.6,55.6,29.89,West,276,0.0,0.0,78,0.00,,,0.00,0,WeatherCatV1.14B232,2013-07-08 05:21:00,
2013-07-07 22:26:00,62.4,55.4,29.89,West,276,0.0,0.0,78,0.00,,,0.00,0,WeatherCatV1.14B232,2013-07-08 05:26:00,
2013-07-07 22:31:00,62.1,55.5,29.89,West,276,0.0,0.0,79,0.00,,,0.00,0,WeatherCatV1.14B232,2013-07-08 05:31:00,
2013-07-07 22:36:00,61.8,55.6,29.89,West,276,0.0,0.0,80,0.00,,,0.00,0,WeatherCatV1.14B232,2013-07-08 05:36:00,
2013-07-07 22:41:00,61.5,55.6,29.89,West,276,0.0,0.0,81,0.00,,,0.00,0,WeatherCatV1.14B232,2013-07-08 05:41:00,
2013-07-07 22:46:00,61.3,55.4,29.89,West,276,0.0,0.0,81,0.00,,,0.00,0,WeatherCatV1.14B232,2013-07-08 05:46:00,
2013-07-07 22:51:00,61.0,55.5,29.89,West,276,0.0,0.0,82,0.00,,,0.00,0,WeatherCatV1.14B232,2013-07-08 05:51:00,
2013-07-07 22:56:00,60.7,55.2,29.89,West,276,0.0,0.0,82,0.00,,,0.00,0,WeatherCatV1.14B232,2013-07-08 05:56:00,
2013-07-07 23:01:00,60.4,55.2,29.90,West,276,0.0,0.0,83,0.00,,,0.00,0,WeatherCatV1.14B232,2013-07-08 06:01:00,
2013-07-07 23:06:00,60.1,54.9,29.90,West,276,0.0,0.0,83,0.00,,,0.00,0,WeatherCatV1.14B232,2013-07-08 06:06:00,
2013-07-07 23:11:00,59.9,55.0,29.90,West,276,0.0,0.0,84,0.00,,,0.00,0,WeatherCatV1.14B232,2013-07-08 06:11:00,
2013-07-07 23:16:00,59.6,54.8,29.90,West,276,0.0,0.0,84,0.00,,,0.00,0,WeatherCatV1.14B232,2013-07-08 06:16:00,
2013-07-07 23:21:00,59.5,54.7,29.90,West,276,0.0,0.0,84,0.00,,,0.00,0,WeatherCatV1.14B232,2013-07-08 06:21:00,
2013-07-07 23:26:00,59.3,54.8,29.90,West,276,0.0,0.0,85,0.00,,,0.00,0,WeatherCatV1.14B232,2013-07-08 06:26:00,
2013-07-07 23:31:00,59.0,54.8,29.90,West,276,0.0,0.0,86,0.00,,,0.00,0,WeatherCatV1.14B232,2013-07-08 06:31:00,
2013-07-07 23:36:00,58.9,54.7,29.90,West,276,0.0,0.0,86,0.00,,,0.00,0,WeatherCatV1.14B232,2013-07-08 06:36:00,
2013-07-07 23:41:00,58.6,54.7,29.90,West,276,0.0,0.0,87,0.00,,,0.00,0,WeatherCatV1.14B232,2013-07-08 06:41:00,
2013-07-07 23:46:00,58.4,54.5,29.90,West,276,0.0,0.0,87,0.00,,,0.00,0,WeatherCatV1.14B232,2013-07-08 06:46:00,
2013-07-07 23:51:00,58.1,54.2,29.90,West,276,0.0,0.0,87,0.00,,,0.00,0,WeatherCatV1.14B232,2013-07-08 06:51:00,
2013-07-07 23:56:00,58.0,54.2,29.90,West,276,0.0,0.0,87,0.00,,,0.00,0,WeatherCatV1.14B232,2013-07-08 06:56:00,